TimeHST,TemperatureF,Dew PointF,Humidity,Sea Level PressureIn,VisibilityMPH,Wind Direction,Wind SpeedMPH,Gust SpeedMPH,PrecipitationIn,Events,Conditions,WindDirDegrees,DateUTC
12:54 AM,75.9,73.0,91,30.00,10.0,NE,13.8,-,N/A,,Overcast,50,2013-08-23 10:54:00
1:54 AM,75.9,73.9,94,29.99,10.0,NE,13.8,21.9,N/A,,Overcast,50,2013-08-23 11:54:00
2:54 AM,75.9,72.0,87,29.98,10.0,East,9.2,-,N/A,,Mostly Cloudy,80,2013-08-23 12:54:00
3:54 AM,77.0,69.1,76,29.98,10.0,East,9.2,-,N/A,,Overcast,80,2013-08-23 13:54:00
4:54 AM,75.0,68.0,79,29.98,10.0,NE,5.8,-,N/A,,Partly Cloudy,40,2013-08-23 14:54:00
5:54 AM,75.0,66.9,76,29.99,10.0,ENE,8.1,-,N/A,,Partly Cloudy,60,2013-08-23 15:54:00
6:54 AM,77.0,66.9,71,30.01,10.0,NE,5.8,-,N/A,,Partly Cloudy,40,2013-08-23 16:54:00
7:54 AM,81.0,69.1,67,30.01,10.0,ENE,9.2,-,N/A,,Partly Cloudy,70,2013-08-23 17:54:00
8:54 AM,82.9,69.1,63,30.03,10.0,ENE,13.8,-,N/A,,Partly Cloudy,60,2013-08-23 18:54:00
9:54 AM,86.0,66.9,53,30.02,10.0,NE,18.4,-,N/A,,Partly Cloudy,40,2013-08-23 19:54:00
10:54 AM,86.0,71.1,61,30.01,10.0,NE,20.7,26.5,N/A,,Partly Cloudy,40,2013-08-23 20:54:00
11:54 AM,89.1,68.0,50,29.99,10.0,NE,19.6,27.6,N/A,,Partly Cloudy,50,2013-08-23 21:54:00
12:54 PM,89.1,68.0,50,29.97,10.0,ENE,18.4,25.3,N/A,,Scattered Clouds,60,2013-08-23 22:54:00
1:54 PM,89.1,71.1,55,29.96,10.0,NE,23.0,-,N/A,,Scattered Clouds,40,2013-08-23 23:54:00
2:54 PM,86.0,71.1,61,29.95,10.0,NNE,24.2,31.1,N/A,,Partly Cloudy,30,2013-08-24 00:54:00
3:54 PM,86.0,72.0,63,29.94,10.0,NNE,23.0,-,N/A,,Scattered Clouds,30,2013-08-24 01:54:00
4:54 PM,84.9,70.0,61,29.93,10.0,NNE,21.9,28.8,N/A,,Scattered Clouds,30,2013-08-24 02:54:00
5:54 PM,82.9,69.1,63,29.93,10.0,NE,19.6,27.6,N/A,,Scattered Clouds,50,2013-08-24 03:54:00
6:54 PM,79.0,69.1,72,29.95,10.0,ENE,16.1,-,N/A,,Scattered Clouds,60,2013-08-24 04:54:00
7:54 PM,78.1,68.0,71,29.98,10.0,ENE,9.2,-,N/A,,Scattered Clouds,60,2013-08-24 05:54:00
8:54 PM,77.0,70.0,79,30.01,10.0,ENE,5.8,-,N/A,,Scattered Clouds,60,2013-08-24 06:54:00
9:54 PM,75.9,68.0,76,30.03,10.0,ENE,6.9,-,N/A,,Clear,70,2013-08-24 07:54:00
10:54 PM,77.0,69.1,76,30.03,10.0,NE,10.4,-,N/A,,Scattered Clouds,50,2013-08-24 08:54:00
11:54 PM,75.9,68.0,76,30.02,10.0,NE,6.9,-,N/A,,Clear,50,2013-08-24 09:54:00